Los Alamos, NM

3:12 PM MDT on April 26, 2017 (GMT -0600)
Los Alamos

Weather History for KLAM - January, 2013

Change the Weather History Date:

Tuesday, January 8, 2013

  Actual Average Record
Temperature  
Mean Temperature 30 °F -  
Max Temperature 42 °F 36 °F 53 °F (1948)
Min Temperature 19 °F 14 °F -9 °F (1971)
Degree Days  
Heating Degree Days 34    
Moisture  
Dew Point 9 °F    
Average Humidity 42    
Maximum Humidity 66    
Minimum Humidity 21    
Precipitation  
Precipitation 0.00 in - - ()
Sea Level Pressure  
Sea Level Pressure 30.06 in    
Wind  
Wind Speed 5 mph (NNE)    
Max Wind Speed 14 mph    
Max Gust Speed 18 mph    
Visibility 10 miles    
Events      
Averages and records for this station are not official NWS values.
T = Trace of Precipitation, MM = Missing Value Source: NWS Daily Summary

Daily Weather History Graph

Daily Weather History Graph

Search for Another Location

Airport or City:

Trip Planner

Search our weather history database for the weather conditions in past years. The results will help you decide how hot, cold, wet, or windy it might be!

Date:

Astronomy

Jan. 08, 2013 Rise Set
Actual Time 7:15 AM MST 5:08 PM MST
Civil Twilight 6:47 AM MST 5:36 PM MST
Nautical Twilight 6:15 AM MST 6:08 PM MST
Astronomical Twilight 5:44 AM MST 6:39 PM MST
Moon 3:52 AM MST (1/8) 2:12 PM MST (1/8)
Length of Visible Light 10h 48m
Length of Day
9h 52m
Waning Crescent, 13% of the Moon is Illuminated
Jan 8
Waning Crescent
Jan 11
New
Jan 18
First Quarter
Jan 26
Full
Feb 3
Last Quarter

Hourly Weather History & Observations

Time (MST) Temp. Windchill Dew Point Humidity Pressure Visibility Wind Dir Wind Speed Gust Speed Precip Events Conditions
12:15 AM 26.8 °F - 8.1 °F 45% 29.97 in 10.0 mi Calm Calm - N/A   Clear
12:35 AM 24.6 °F - 8.2 °F 50% 29.98 in 10.0 mi Calm Calm - N/A   Clear
12:55 AM 23.9 °F 19.5 °F 8.4 °F 52% 29.99 in 10.0 mi NNE 3.5 mph - N/A   Clear
1:15 AM 23.9 °F 18.0 °F 8.8 °F 53% 29.98 in 10.0 mi North 4.6 mph - N/A   Clear
1:35 AM 24.4 °F 20.1 °F 9.0 °F 52% 29.98 in - NE 3.5 mph - N/A   Clear
1:55 AM 22.1 °F 14.7 °F 9.1 °F 58% 29.98 in 10.0 mi NE 5.8 mph - N/A   Clear
2:15 AM 22.6 °F 16.5 °F 9.7 °F 58% 29.98 in 10.0 mi NNW 4.6 mph - N/A   Clear
2:35 AM 24.4 °F 15.6 °F 10.8 °F 56% 29.98 in 10.0 mi North 8.1 mph - N/A   Clear
2:55 AM 24.6 °F 18.8 °F 10.2 °F 54% 29.97 in 10.0 mi North 4.6 mph - N/A   Clear
3:15 AM 25.5 °F 16.2 °F 9.7 °F 51% 29.96 in 10.0 mi North 9.2 mph - N/A   Clear
3:35 AM 26.4 °F 17.3 °F 9.9 °F 50% 29.96 in 10.0 mi North 9.2 mph - N/A   Clear
3:55 AM 26.6 °F 16.8 °F 9.1 °F 48% 29.94 in 10.0 mi NNW 10.4 mph - N/A   Clear
4:15 AM 27.0 °F 18.7 °F 8.4 °F 46% 29.94 in 10.0 mi North 8.1 mph - N/A   Clear
4:35 AM 24.1 °F - 8.1 °F 51% 29.95 in - Calm Calm - N/A   Clear
4:55 AM 21.7 °F - 8.1 °F 56% 29.95 in - Calm Calm - N/A   Clear
5:15 AM 19.4 °F - 8.1 °F 61% 29.95 in - Calm Calm - N/A   Clear
5:35 AM 20.7 °F 11.9 °F 8.8 °F 60% 29.94 in - North 6.9 mph - N/A   Clear
5:55 AM 20.3 °F 13.8 °F 8.6 °F 61% 29.96 in - NNE 4.6 mph - N/A   Clear
6:35 AM 19.2 °F - 9.5 °F 66% 29.97 in - Calm Calm - N/A   Clear
6:55 AM 20.5 °F - 9.1 °F 62% 29.98 in - Calm Calm - N/A   Clear
7:15 AM 22.1 °F 12.8 °F 9.5 °F 58% 29.98 in - NNW 8.1 mph - N/A   Clear
7:35 AM 23.9 °F 16.8 °F 9.5 °F 54% 29.99 in - North 5.8 mph - N/A   Clear
7:55 AM 25.7 °F 15.1 °F 9.0 °F 49% 29.99 in - North 11.5 mph 18.4 mph N/A   Clear
8:15 AM 25.5 °F 18.7 °F 9.0 °F 50% 30.01 in - North 5.8 mph - N/A   Clear
8:35 AM 26.1 °F 17.6 °F 9.3 °F 49% 30.03 in - NNE 8.1 mph - N/A   Clear
8:55 AM 24.4 °F - 9.1 °F 52% 30.03 in 10.0 mi Calm Calm - N/A   Clear
9:15 AM 23.0 °F 18.4 °F 9.5 °F 56% 30.04 in 10.0 mi NNE 3.5 mph - N/A   Clear
9:35 AM 24.1 °F 18.2 °F 9.3 °F 53% 30.05 in 10.0 mi North 4.6 mph - N/A   Clear
9:55 AM 27.3 °F 23.4 °F 9.7 °F 48% 30.05 in 10.0 mi NNE 3.5 mph - N/A   Clear
10:15 AM 28.8 °F 23.7 °F 9.9 °F 45% 30.04 in 10.0 mi ENE 4.6 mph - N/A   Clear
10:35 AM 30.4 °F 25.6 °F 10.4 °F 43% 30.03 in 10.0 mi ENE 4.6 mph - N/A   Clear
10:55 AM 30.6 °F 23.8 °F 9.1 °F 41% 30.03 in 10.0 mi North 6.9 mph - N/A   Clear
11:15 AM 32.0 °F 27.5 °F 8.2 °F 37% 30.02 in 10.0 mi NE 4.6 mph - N/A   Clear
11:35 AM 34.5 °F 31.6 °F 7.3 °F 32% 30.01 in 10.0 mi East 3.5 mph - N/A   Clear
11:55 AM 36.5 °F 31.0 °F 7.0 °F 29% 30.01 in 10.0 mi ENE 6.9 mph - N/A   Clear
12:15 PM 36.9 °F 31.4 °F 7.9 °F 30% 30.01 in 10.0 mi East 6.9 mph - N/A   Clear
12:55 PM 36.0 °F 32.1 °F 7.9 °F 31% 30.01 in 10.0 mi ENE 4.6 mph - N/A   Clear
1:15 PM 36.9 °F - 7.2 °F 29% 30.02 in 10.0 mi Calm Calm - N/A   Clear
1:35 PM 39.2 °F 35.9 °F 7.2 °F 27% 30.01 in 10.0 mi North 4.6 mph - N/A   Clear
1:55 PM 41.9 °F 37.5 °F 4.1 °F 21% 30.01 in 10.0 mi NE 6.9 mph - N/A   Clear
2:15 PM 42.6 °F 37.8 °F 4.8 °F 21% 30.02 in 10.0 mi NE 8.1 mph - N/A   Clear
2:35 PM 42.4 °F 37.5 °F 6.4 °F 23% 30.02 in 10.0 mi NE 8.1 mph - N/A   Clear
2:55 PM 41.7 °F 35.6 °F 7.5 °F 25% 30.04 in 10.0 mi ENE 10.4 mph - N/A   Clear
3:15 PM 41.2 °F 35.0 °F 7.9 °F 25% 30.05 in 10.0 mi ENE 10.4 mph - N/A   Clear
3:35 PM 41.4 °F 34.7 °F 5.5 °F 23% 30.06 in 10.0 mi NNE 11.5 mph 18.4 mph N/A   Clear
3:55 PM 41.5 °F 35.9 °F 5.4 °F 22% 30.07 in 10.0 mi NE 9.2 mph - N/A   Clear
4:15 PM 40.8 °F 35.0 °F 6.6 °F 24% 30.08 in 10.0 mi North 9.2 mph - N/A   Clear
4:35 PM 39.4 °F 31.4 °F 9.3 °F 29% 30.07 in 10.0 mi NNW 13.8 mph 17.3 mph N/A   Clear
4:55 PM 39.2 °F 34.2 °F 9.0 °F 29% 30.09 in 10.0 mi NNE 6.9 mph - N/A   Clear
5:15 PM 38.3 °F 33.2 °F 9.3 °F 30% 30.11 in 10.0 mi NE 6.9 mph - N/A   Clear
5:35 PM 37.4 °F 31.4 °F 9.3 °F 31% 30.11 in 10.0 mi NE 8.1 mph - N/A   Clear
5:55 PM 36.7 °F 28.9 °F 10.0 °F 33% 30.12 in 10.0 mi NNW 11.5 mph 17.3 mph N/A   Clear
6:15 PM 36.9 °F 30.1 °F 10.0 °F 33% 30.13 in 10.0 mi NNW 9.2 mph - N/A   Clear
6:35 PM 37.8 °F 29.8 °F 10.0 °F 32% 30.13 in 10.0 mi North 12.7 mph - N/A   Clear
6:55 PM 38.1 °F 33.7 °F 9.5 °F 31% 30.14 in 10.0 mi North 5.8 mph - N/A   Clear
7:15 PM 37.6 °F 31.6 °F 9.3 °F 31% 30.14 in 10.0 mi North 8.1 mph - N/A   Clear
7:35 PM 37.6 °F 33.1 °F 9.0 °F 31% 30.15 in 10.0 mi ENE 5.8 mph - N/A   Clear
7:55 PM 37.6 °F 31.6 °F 8.8 °F 30% 30.16 in 10.0 mi NE 8.1 mph 16.1 mph N/A   Clear
8:15 PM 35.1 °F 28.6 °F 9.3 °F 34% 30.17 in 10.0 mi ENE 8.1 mph - N/A   Clear
8:35 PM 31.8 °F 26.2 °F 10.4 °F 41% 30.18 in 10.0 mi NE 5.8 mph - N/A   Clear
8:55 PM 31.8 °F 25.4 °F 10.4 °F 41% 30.19 in 10.0 mi NE 6.9 mph - N/A   Clear
9:15 PM 31.8 °F 24.6 °F 10.4 °F 41% 30.20 in 10.0 mi NNE 8.1 mph - N/A   Clear
9:35 PM 31.6 °F 28.3 °F 10.8 °F 42% 30.21 in 10.0 mi North 3.5 mph - N/A   Clear
9:55 PM 30.2 °F 23.4 °F 11.1 °F 45% 30.22 in 10.0 mi North 6.9 mph - N/A   Clear
10:15 PM 32.0 °F 24.8 °F 10.8 °F 41% 30.22 in 10.0 mi North 8.1 mph - N/A   Clear
10:35 PM 36.1 °F 29.3 °F 9.1 °F 33% 30.23 in 10.0 mi North 9.2 mph - N/A   Clear
10:55 PM 33.1 °F 26.1 °F 10.4 °F 39% 30.24 in 10.0 mi NNE 8.1 mph - N/A   Clear
11:15 PM 33.1 °F 28.7 °F 10.9 °F 40% 30.25 in 10.0 mi North 4.6 mph - N/A   Clear
11:35 PM 35.1 °F 30.1 °F 10.2 °F 36% 30.25 in 10.0 mi NE 5.8 mph - N/A   Clear
11:55 PM 30.4 °F 24.5 °F 12.4 °F 47% 30.25 in 10.0 mi NE 5.8 mph - N/A   Clear